Regional Weather Roundup
Issued by NWS

Home | Current Version | Previous Version | Text Only | Print | Product List | Glossary Off
Versions: 1 2 3 4 5 6 7 8 9 10 11 12 13 14 15 16 17 18 19 20 21 22 23 24 25 26 27 28 29 30 31 32 33 34 35 36 37 38 39 40 41 42 43 44 45 46 47 48 49 50

000
ASUS44 KMEG 271000
RWRTN
TENNESSEE HOURLY STATE WEATHER ROUNDUP
NATIONAL WEATHER SERVICE MEMPHIS TN
500 AM CDT FRI MAR 27 2015

TNZ002-004-019-021-049-052-054-088>092-271100-
WEST TENNESSEE

CITY           SKY/WX    TMP DP  RH WIND       PRES   REMARKS
MEMPHIS INTL   CLEAR     36  33  89 NW3       30.04R
NWS MEMPHIS      N/A     32 N/A N/A MISG        N/A
JACKSON        CLEAR     30  27  88 CALM      30.02S
DYERSBURG      CLEAR     36  23  60 CALM      30.05R
UNION CITY     CLEAR     34  34 100 CALM      30.01S
PARIS          CLEAR     28  28 100 CALM      30.00S
LEXINGTON      CLEAR     34  30  86 NW3       29.98R
SAVANNAH       CLEAR     32  30  93 CALM      30.00R
$$

TNZ008-025-027-028-033-062-065-066-271100-
NORTH MIDDLE TENNESSEE

CITY           SKY/WX    TMP DP  RH WIND       PRES   REMARKS
NASHVILLE      CLEAR     36  33  89 NW5       29.96S WCI  32
CLARKSVILLE    CLEAR     32  31  96 NW5       29.99R WCI  27
COOKEVILLE     MOCLDY    39  37  93 N7        29.90R WCI  34
CROSSVILLE     CLOUDY    39  33  79 N12       29.86S WCI  32
$$

TNZ061-075-076-078-094-096-097-271100-
SOUTH MIDDLE TENNESSEE

CITY           SKY/WX    TMP DP  RH WIND       PRES   REMARKS
FAYETTEVILLE   CLOUDY    37  36  93 N9        29.90S WCI  31
TULLAHOMA      CLOUDY    37  36  93 N7        29.90F WCI  32
WINCHESTER     CLOUDY    39  37  93 N6        29.89F WCI  35
COLUMBIA       CLEAR     36  36 100 CALM      29.94R
SHELBYVILLE    CLOUDY    39  37  93 N8        29.93S WCI  34
$$

TNZ017-018-042-046-047-271100-
NORTHEAST TENNESSEE

CITY           SKY/WX    TMP DP  RH WIND       PRES   REMARKS
TRI CITIES     LGT RAIN  41  38  89 N5        29.81S
ELIZABETHTON   CLOUDY    39  37  93 W3        29.79R
$$

TNZ012-013-036-069-073-074-271100-
CENTRAL EAST TENNESSEE

CITY           SKY/WX    TMP DP  RH WIND       PRES   REMARKS
KNOXVILLE      LGT RAIN  42  38  85 N13       29.83R
OAK RIDGE      CLOUDY    43  39  86 CALM      29.86R
GATLINBURG     CLOUDY    41  39  93 N3        29.82R
$$

TNZ083-085-099-271100-
SOUTHEAST TENNESSEE

CITY           SKY/WX    TMP DP  RH WIND       PRES   REMARKS
CHATTANOOGA    CLOUDY    45  37  73 N15       29.83F
$$

SKY/WX REPORTED AS FAIR MEANS FEW OR NO CLOUDS BELOW
12 THOUSAND FEET.




USA.gov is the U.S. government's official web portal to all federal, state and local government web resources and services.